{"data":{"norad_id":68397,"epoch":"2026-05-25T03:45:03.475872Z","epoch_age_seconds":64636,"freshness":"FRESH","line1":"1 68397U 26063T   26145.15629023  .00024728  00000+0  76548-3 0  9991","line2":"2 68397  97.2854 287.7121 0001449  89.1336 271.0072 15.33457111  9612","mean_motion":15.33457111,"eccentricity":0.0001449,"inclination_deg":97.2854,"raan_deg":287.7121,"arg_perigee_deg":89.1336,"mean_anomaly_deg":271.0072,"bstar":0.00076548,"rev_number":961,"period_min":93.905463000589,"perigee_km":464.51549686409,"apogee_km":466.49878493612,"semimajor_km":6843.6441409001,"source":"CELESTRAK","updated_at":"2026-05-25T13:38:21.932020Z"}}